PEGASUS DEB, 24529

Orbit data source: Space-Track

PEGASUS DEB, 24529 is space debris in LEO originally from a launch on Thu, 19 May 1994 UTC launched from the Air Force Western Test Range (AFWTR). Debris objects in space refer to the collection of defunct objects orbiting the Earth. Examples of debris include non-operational satellites, rocket bodies, and fragments generated from explosions, collisions, or faulty payload assembly.

Loading next visibility...
Identifier
24529, 1994-029WD
Orbit
LEO
Country
Flag of USUS
Related business
Manufacturer
Unknown
Mission
Spacecraft
Bus & Motor
Unknown
Mass
Unknown
Launch date (UTC)
1994-05-19 (32 years ago)
Launch vehicle
Unknown
Launch site
Air Force Western Test Range (AFWTR)
Object type
Payload
Rocket body
Debris
Shape & HBR
Unknown shape, 0.1 m
Radar Cross Section
Small (<0.1 m²)

Expand to show TLE details & history
Last TLE update: 5 hours ago

TLE from 5 hours ago
0 PEGASUS DEB
1 24529U 94029WD  26119.14952506  .00001951  00000-0  18142-3 0  9992
2 24529  81.9750 170.2122 0107981  87.8944 335.2248 14.89399865244981
Epoch: 2026-04-29T03:35Z
TLE epoch observation values (Epoch: 2026-04-29T03:35:18.965Z)
Latitude
61.62927°
Longitude
-85.68325°
Altitude
542.077 km
Speed
7.634 km/s
True Right ascension
12h 21m 02s
True Declination
61° 28' 51"
Sunlit
Object was in daylight at epoch
Visualization orbit readout
Latitude
Unknown
Longitude
Unknown
Altitude
Unknown
Speed
Unknown
Apparent Right ascension
Unknown
Apparent Declination
Unknown
Sunlit
N/A
Visualization observer readout
Local Sidereal Time
16:25:44
Azimuth
Unknown
Elevation
Unknown
Doppler factor
Unknown
Orbital elements
Apogee altitude
672.159 km
Perigee altitude
521.526 km
Semi-major axis
6,974.98 km
Eccentricity
0.0108
Inclination
81.975°
RAAN
170.2122°
Arg. of periapsis
87.8944°
True anomaly
334.69985°
Mean anomaly
335.2248°
Eccentric anomaly
334.96297°
Mean motion
3.72588 °/min
Orbital period
96.62 mins
BSTAR
0.00018142
Loading maneuver chart data...
Computing Atmospheric mass density...
Loading historical data...
Loading historical data...
Loading historical data...
Loading historical data...
Loading historical data...
Loading historical data...
Loading historical data...

Documentation

Showing up to 5 results
|